Вернуться в каталог

GLOBAL-32

АктивенСвязьVLEO
NORAD 64231·PAYLOAD·🇺🇸 United States

Запущен Jun 2, 2025 с Rocket Lab Launch Complex 1

Loading…

Ближайшие Пролёты (ближайшие 24 часа)

TLE

СвежийSource: Space-Track

Эпоха: Sep 13, 2026, 21:36 UTC

1 64231U 25118B   26256.90053225  .00002529  00000-0  75201-4 0  9997
2 64231  58.9908 133.9457 0011828  73.5410 286.6965 15.38361424 71893

Отслеживайте GLOBAL-32 в реальном времени с AllMySat

Download on the App Store